N87JW KS25-KJAC

Flight info

Callsign N87JW
Flight time 1h 43m
Altitude 26000
Route SAYOR CAPRK DNW
Aircraft PC12/L-SDFGRWY/S

Departure

Time 2026-05-09 01:53
Airport Watford City Municipal Airport (KS25)

Arrival

Time 2026-05-09 03:36
Airport Jackson Hole Airport (KJAC)
Time Latitude Longitude Altitude Speed Heading
2026-05-09 01:29 47.80283 -103.25904 2059 ft 0 kts
2026-05-09 01:45 47.80284 -103.25904 2059 ft 1 kts 358°
2026-05-09 01:45 47.80298 -103.25901 2058 ft 4 kts 33°
2026-05-09 01:46 47.80296 -103.25861 2059 ft 5 kts 144°
2026-05-09 01:46 47.80258 -103.25851 2060 ft 7 kts 180°
2026-05-09 01:46 47.80199 -103.25852 2061 ft 10 kts 180°
2026-05-09 01:46 47.80116 -103.25853 2061 ft 13 kts 180°
2026-05-09 01:47 47.80016 -103.25854 2061 ft 15 kts 180°
2026-05-09 01:47 47.79926 -103.25858 2063 ft 12 kts 191°
2026-05-09 01:47 47.79853 -103.25825 2065 ft 12 kts 138°
2026-05-09 01:47 47.79782 -103.25736 2065 ft 15 kts 140°
2026-05-09 01:48 47.79704 -103.25634 2068 ft 15 kts 133°
2026-05-09 01:48 47.79643 -103.25499 2068 ft 17 kts 123°
2026-05-09 01:48 47.79577 -103.25348 2068 ft 18 kts 123°
2026-05-09 01:48 47.79508 -103.25187 2065 ft 20 kts 123°
2026-05-09 01:49 47.79431 -103.25011 2066 ft 20 kts 122°
2026-05-09 01:49 47.79357 -103.24838 2065 ft 20 kts 123°
2026-05-09 01:49 47.79286 -103.24682 2070 ft 17 kts 123°
2026-05-09 01:49 47.79220 -103.24526 2070 ft 19 kts 123°
2026-05-09 01:50 47.79157 -103.24381 2071 ft 9 kts 124°
2026-05-09 01:50 47.79113 -103.24348 2067 ft 0 kts 217°
2026-05-09 01:51 47.79112 -103.24349 2067 ft 1 kts 218°
2026-05-09 01:51 47.79083 -103.24381 2066 ft 6 kts 214°
2026-05-09 01:51 47.79073 -103.24415 2067 ft 0 kts 301°
2026-05-09 01:52 47.79130 -103.24536 2068 ft 37 kts 304°
2026-05-09 01:52 47.79352 -103.25061 2065 ft 80 kts 303°
2026-05-09 01:52 47.79659 -103.25839 2260 ft 94 kts 309°
2026-05-09 01:53 47.80027 -103.26726 2487 ft 106 kts 310°
2026-05-09 01:53 47.80425 -103.27694 2786 ft 113 kts 306°
2026-05-09 01:53 47.80873 -103.28752 3123 ft 129 kts 302°
2026-05-09 01:53 47.81377 -103.29937 3536 ft 136 kts 304°
2026-05-09 01:54 47.81879 -103.31127 4123 ft 136 kts 304°
2026-05-09 01:54 47.82166 -103.32432 4665 ft 142 kts 264°
2026-05-09 01:54 47.81750 -103.33830 5099 ft 152 kts 251°
2026-05-09 01:54 47.81224 -103.35222 5620 ft 155 kts 249°
2026-05-09 01:55 47.80710 -103.36618 6151 ft 156 kts 253°
2026-05-09 01:55 47.80221 -103.38058 6666 ft 156 kts 253°
2026-05-09 01:55 47.79735 -103.39497 7181 ft 157 kts 253°
2026-05-09 01:55 47.79242 -103.40943 7719 ft 156 kts 253°
2026-05-09 01:56 47.78747 -103.42386 8252 ft 157 kts 253°
2026-05-09 01:56 47.78249 -103.43826 8819 ft 157 kts 253°
2026-05-09 01:56 47.77750 -103.45268 9368 ft 157 kts 253°
2026-05-09 01:56 47.77250 -103.46712 9900 ft 157 kts 253°
2026-05-09 01:57 47.76750 -103.48151 10402 ft 157 kts 253°
2026-05-09 01:57 47.76248 -103.49597 10899 ft 157 kts 253°
2026-05-09 01:57 47.75747 -103.51042 11385 ft 158 kts 253°
2026-05-09 01:57 47.75242 -103.52495 11878 ft 158 kts 254°
2026-05-09 01:58 47.74736 -103.53954 12376 ft 160 kts 253°
2026-05-09 01:58 47.74224 -103.55426 12878 ft 161 kts 254°
2026-05-09 01:58 47.73709 -103.56906 13385 ft 162 kts 254°
2026-05-09 01:58 47.73194 -103.58379 13898 ft 158 kts 252°
2026-05-09 01:59 47.72689 -103.59818 14354 ft 157 kts 253°
2026-05-09 01:59 47.72183 -103.61274 14767 ft 159 kts 253°
2026-05-09 01:59 47.71673 -103.62746 15184 ft 161 kts 254°
2026-05-09 01:59 47.71156 -103.64230 15596 ft 163 kts 254°
2026-05-09 02:00 47.70631 -103.65738 16002 ft 165 kts 255°
2026-05-09 02:00 47.70101 -103.67259 16411 ft 167 kts 255°
2026-05-09 02:00 47.69561 -103.68796 16817 ft 169 kts 255°
2026-05-09 02:00 47.69017 -103.70348 17208 ft 170 kts 255°
2026-05-09 02:01 47.68474 -103.71896 17582 ft 172 kts 256°
2026-05-09 02:01 47.67919 -103.73479 17962 ft 174 kts 256°
2026-05-09 02:01 47.67358 -103.75079 18309 ft 175 kts 256°
2026-05-09 02:01 47.66793 -103.76689 18646 ft 176 kts 257°
2026-05-09 02:02 47.66226 -103.78307 18982 ft 177 kts 257°
2026-05-09 02:02 47.65655 -103.79931 19354 ft 178 kts 257°
2026-05-09 02:02 47.65081 -103.81564 19734 ft 179 kts 257°
2026-05-09 02:02 47.64505 -103.83202 20097 ft 180 kts 258°
2026-05-09 02:03 47.63926 -103.84847 20464 ft 180 kts 258°
2026-05-09 02:03 47.63343 -103.86504 20824 ft 181 kts 258°
2026-05-09 02:03 47.62758 -103.88163 21158 ft 182 kts 258°
2026-05-09 02:03 47.62169 -103.89834 21507 ft 183 kts 258°
2026-05-09 02:04 47.61584 -103.91495 21855 ft 184 kts 259°
2026-05-09 02:04 47.60990 -103.93176 22206 ft 185 kts 259°
2026-05-09 02:04 47.60387 -103.94883 22511 ft 187 kts 258°
2026-05-09 02:04 47.59783 -103.96595 22850 ft 188 kts 258°
2026-05-09 02:05 47.59175 -103.98318 23210 ft 189 kts 258°
2026-05-09 02:05 47.58564 -104.00047 23489 ft 190 kts 259°
2026-05-09 02:05 47.57949 -104.01784 23743 ft 190 kts 259°
2026-05-09 02:05 47.57333 -104.03520 23978 ft 191 kts 259°
2026-05-09 02:06 47.56714 -104.05262 24207 ft 192 kts 259°
2026-05-09 02:06 47.56094 -104.07010 24476 ft 193 kts 259°
2026-05-09 02:06 47.55467 -104.08772 24722 ft 194 kts 259°
2026-05-09 02:07 47.54204 -104.12320 25209 ft 195 kts 259°
2026-05-09 02:07 47.53571 -104.14095 25457 ft 196 kts 260°
2026-05-09 02:07 47.52935 -104.15878 25703 ft 196 kts 260°
2026-05-09 02:07 47.52303 -104.17652 25941 ft 197 kts 260°
2026-05-09 02:08 47.51658 -104.19472 26040 ft 205 kts 260°
2026-05-09 02:08 47.50989 -104.21412 25956 ft 219 kts 259°
2026-05-09 02:08 47.50277 -104.23470 25859 ft 230 kts 258°
2026-05-09 02:08 47.49525 -104.25600 25839 ft 236 kts 257°
2026-05-09 02:09 47.48748 -104.27767 25828 ft 240 kts 257°
2026-05-09 02:09 47.47958 -104.29954 25821 ft 242 kts 257°
2026-05-09 02:09 47.47161 -104.32153 25794 ft 243 kts 256°
2026-05-09 02:09 47.46360 -104.34361 25805 ft 244 kts 256°
2026-05-09 02:10 47.45560 -104.36571 25809 ft 244 kts 256°
2026-05-09 02:10 47.44757 -104.38793 25809 ft 245 kts 256°
2026-05-09 02:10 47.43955 -104.41018 25810 ft 246 kts 256°
2026-05-09 02:10 47.43151 -104.43247 25814 ft 246 kts 256°
2026-05-09 02:11 47.42345 -104.45483 25805 ft 247 kts 256°
2026-05-09 02:11 47.41538 -104.47718 25804 ft 247 kts 256°
2026-05-09 02:11 47.40730 -104.49954 25802 ft 247 kts 256°
2026-05-09 02:11 47.39932 -104.52164 25800 ft 248 kts 256°
2026-05-09 02:12 47.39120 -104.54413 25803 ft 249 kts 256°
2026-05-09 02:12 47.38304 -104.56669 25802 ft 249 kts 256°
2026-05-09 02:12 47.37484 -104.58935 25797 ft 250 kts 256°
2026-05-09 02:12 47.36661 -104.61203 25796 ft 250 kts 256°
2026-05-09 02:13 47.35841 -104.63462 25796 ft 250 kts 256°
2026-05-09 02:13 47.35020 -104.65721 25800 ft 250 kts 256°
2026-05-09 02:13 47.34198 -104.67979 25772 ft 250 kts 255°
2026-05-09 02:13 47.33377 -104.70233 25792 ft 250 kts 255°
2026-05-09 02:14 47.32555 -104.72489 25793 ft 250 kts 255°
2026-05-09 02:14 47.31732 -104.74744 25791 ft 250 kts 255°
2026-05-09 02:14 47.30908 -104.77000 25793 ft 249 kts 255°
2026-05-09 02:14 47.30086 -104.79253 25797 ft 250 kts 255°
2026-05-09 02:15 47.29262 -104.81507 25796 ft 250 kts 255°
2026-05-09 02:15 47.28448 -104.83735 25796 ft 250 kts 255°
2026-05-09 02:15 47.27623 -104.85990 25795 ft 249 kts 255°
2026-05-09 02:15 47.26801 -104.88236 25797 ft 250 kts 255°
2026-05-09 02:16 47.25977 -104.90484 25796 ft 250 kts 255°
2026-05-09 02:16 47.25152 -104.92733 25795 ft 249 kts 255°
2026-05-09 02:16 47.24330 -104.94969 25797 ft 248 kts 255°
2026-05-09 02:16 47.23478 -104.97180 25792 ft 251 kts 251°
2026-05-09 02:17 47.22430 -104.99281 25794 ft 258 kts 243°
2026-05-09 02:17 47.21263 -105.01289 25799 ft 258 kts 243°
2026-05-09 02:17 47.20107 -105.03306 25777 ft 257 kts 243°
2026-05-09 02:17 47.18964 -105.05317 25792 ft 256 kts 243°
2026-05-09 02:18 47.17824 -105.07331 25795 ft 257 kts 243°
2026-05-09 02:18 47.16679 -105.09353 25801 ft 258 kts 243°
2026-05-09 02:18 47.15529 -105.11381 25802 ft 258 kts 243°
2026-05-09 02:18 47.14392 -105.13384 25802 ft 259 kts 243°
2026-05-09 02:19 47.13220 -105.15441 25798 ft 259 kts 243°
2026-05-09 02:19 47.12078 -105.17446 25805 ft 259 kts 243°
2026-05-09 02:19 47.10918 -105.19478 25803 ft 260 kts 243°
2026-05-09 02:19 47.09756 -105.21512 25804 ft 259 kts 243°
2026-05-09 02:20 47.08597 -105.23538 25804 ft 260 kts 243°
2026-05-09 02:20 47.07434 -105.25571 25803 ft 260 kts 243°
2026-05-09 02:20 47.06273 -105.27599 25805 ft 260 kts 243°
2026-05-09 02:20 47.05110 -105.29629 25805 ft 260 kts 243°
2026-05-09 02:21 47.03947 -105.31657 25807 ft 259 kts 243°
2026-05-09 02:21 47.02786 -105.33680 25808 ft 259 kts 243°
2026-05-09 02:21 47.01625 -105.35703 25785 ft 259 kts 243°
2026-05-09 02:21 47.00465 -105.37722 25804 ft 259 kts 243°
2026-05-09 02:22 46.99304 -105.39744 25800 ft 259 kts 243°
2026-05-09 02:22 46.98146 -105.41758 25812 ft 259 kts 243°
2026-05-09 02:22 46.96982 -105.43780 25814 ft 259 kts 242°
2026-05-09 02:22 46.95821 -105.45796 25804 ft 259 kts 242°
2026-05-09 02:23 46.94659 -105.47812 25805 ft 259 kts 242°
2026-05-09 02:23 46.93498 -105.49823 25809 ft 259 kts 242°
2026-05-09 02:23 46.92336 -105.51836 25810 ft 259 kts 242°
2026-05-09 02:23 46.91172 -105.53851 25812 ft 259 kts 242°
2026-05-09 02:24 46.90024 -105.55835 25811 ft 259 kts 242°
2026-05-09 02:24 46.88861 -105.57846 25812 ft 259 kts 242°
2026-05-09 02:24 46.87695 -105.59858 25812 ft 259 kts 242°
2026-05-09 02:24 46.86529 -105.61870 25812 ft 259 kts 242°
2026-05-09 02:25 46.85364 -105.63878 25810 ft 259 kts 242°
2026-05-09 02:25 46.84200 -105.65883 25809 ft 259 kts 242°
2026-05-09 02:25 46.83033 -105.67892 25794 ft 259 kts 242°
2026-05-09 02:25 46.81865 -105.69900 25803 ft 258 kts 242°
2026-05-09 02:26 46.81096 -105.71222 25809 ft 258 kts 242°
2026-05-09 02:26 46.79936 -105.73220 25812 ft 258 kts 242°
2026-05-09 02:26 46.78773 -105.75221 25814 ft 258 kts 242°
2026-05-09 02:26 46.77610 -105.77218 25814 ft 258 kts 242°
2026-05-09 02:27 46.76449 -105.79211 25810 ft 258 kts 242°
2026-05-09 02:27 46.75285 -105.81206 25813 ft 258 kts 242°
2026-05-09 02:27 46.74120 -105.83201 25811 ft 258 kts 242°
2026-05-09 02:27 46.72953 -105.85198 25811 ft 258 kts 242°
2026-05-09 02:28 46.71787 -105.87190 25809 ft 258 kts 241°
2026-05-09 02:28 46.70622 -105.89180 25811 ft 258 kts 241°
2026-05-09 02:28 46.69456 -105.91171 25809 ft 258 kts 241°
2026-05-09 02:28 46.68302 -105.93139 25797 ft 258 kts 241°
2026-05-09 02:29 46.67135 -105.95128 25810 ft 258 kts 241°
2026-05-09 02:29 46.65969 -105.97113 25813 ft 258 kts 241°
2026-05-09 02:29 46.64801 -105.99101 25814 ft 258 kts 241°
2026-05-09 02:29 46.63629 -106.01094 25815 ft 258 kts 241°
2026-05-09 02:30 46.62460 -106.03081 25813 ft 258 kts 241°
2026-05-09 02:30 46.61288 -106.05070 25815 ft 258 kts 241°
2026-05-09 02:30 46.60117 -106.07058 25815 ft 259 kts 241°
2026-05-09 02:30 46.58946 -106.09045 25815 ft 259 kts 241°
2026-05-09 02:31 46.57775 -106.11028 25814 ft 259 kts 241°
2026-05-09 02:31 46.56602 -106.13013 25815 ft 259 kts 241°
2026-05-09 02:31 46.55446 -106.14969 25815 ft 259 kts 241°
2026-05-09 02:31 46.54271 -106.16956 25816 ft 259 kts 241°
2026-05-09 02:32 46.53098 -106.18938 25815 ft 259 kts 241°
2026-05-09 02:32 46.51922 -106.20922 25814 ft 259 kts 241°
2026-05-09 02:32 46.50746 -106.22905 25815 ft 259 kts 241°
2026-05-09 02:32 46.49572 -106.24884 25815 ft 259 kts 241°
2026-05-09 02:33 46.48397 -106.26863 25816 ft 259 kts 241°
2026-05-09 02:33 46.47223 -106.28839 25815 ft 259 kts 241°
2026-05-09 02:33 46.46049 -106.30815 25802 ft 258 kts 240°
2026-05-09 02:33 46.44874 -106.32788 25808 ft 258 kts 240°
2026-05-09 02:34 46.43702 -106.34757 25809 ft 258 kts 240°
2026-05-09 02:34 46.42532 -106.36721 25812 ft 257 kts 240°
2026-05-09 02:34 46.41354 -106.38698 25814 ft 259 kts 240°
2026-05-09 02:34 46.40176 -106.40675 25806 ft 259 kts 240°
2026-05-09 02:35 46.38994 -106.42655 25811 ft 260 kts 240°
2026-05-09 02:35 46.37827 -106.44610 25813 ft 260 kts 240°
2026-05-09 02:35 46.36642 -106.46591 25814 ft 260 kts 240°
2026-05-09 02:35 46.35455 -106.48572 25814 ft 260 kts 240°
2026-05-09 02:36 46.34269 -106.50553 25818 ft 261 kts 240°
2026-05-09 02:36 46.33081 -106.52534 25818 ft 261 kts 240°
2026-05-09 02:36 46.31891 -106.54517 25816 ft 260 kts 240°
2026-05-09 02:36 46.30703 -106.56497 25815 ft 260 kts 240°
2026-05-09 02:37 46.29517 -106.58471 25814 ft 260 kts 240°
2026-05-09 02:37 46.28330 -106.60444 25815 ft 260 kts 240°
2026-05-09 02:37 46.27140 -106.62417 25803 ft 259 kts 239°
2026-05-09 02:37 46.25970 -106.64356 25809 ft 259 kts 239°
2026-05-09 02:38 46.24784 -106.66325 25811 ft 259 kts 239°
2026-05-09 02:38 46.23602 -106.68285 25812 ft 259 kts 239°
2026-05-09 02:38 46.22420 -106.70245 25816 ft 259 kts 239°
2026-05-09 02:38 46.21238 -106.72205 25815 ft 259 kts 239°
2026-05-09 02:39 46.20056 -106.74162 25812 ft 259 kts 239°
2026-05-09 02:39 46.18874 -106.76118 25816 ft 259 kts 239°
2026-05-09 02:39 46.17691 -106.78074 25816 ft 259 kts 239°
2026-05-09 02:39 46.16506 -106.80034 25816 ft 259 kts 239°
2026-05-09 02:40 46.15320 -106.81991 25812 ft 259 kts 239°
2026-05-09 02:40 46.14133 -106.83949 25813 ft 259 kts 239°
2026-05-09 02:40 46.12948 -106.85903 25812 ft 259 kts 239°
2026-05-09 02:40 46.11763 -106.87855 25809 ft 259 kts 239°
2026-05-09 02:41 46.10574 -106.89814 25819 ft 260 kts 239°
2026-05-09 02:41 46.09381 -106.91778 25795 ft 261 kts 239°
2026-05-09 02:41 46.08184 -106.93744 25809 ft 261 kts 239°
2026-05-09 02:41 46.06989 -106.95708 25814 ft 261 kts 239°
2026-05-09 02:42 46.05792 -106.97675 25818 ft 261 kts 239°
2026-05-09 02:42 46.04595 -106.99640 25818 ft 261 kts 239°
2026-05-09 02:42 46.03412 -107.01580 25818 ft 261 kts 239°
2026-05-09 02:42 46.02212 -107.03545 25816 ft 261 kts 239°
2026-05-09 02:43 46.01012 -107.05510 25818 ft 261 kts 239°
2026-05-09 02:43 45.99815 -107.07468 25820 ft 261 kts 239°
2026-05-09 02:43 45.98617 -107.09425 25819 ft 260 kts 239°
2026-05-09 02:43 45.97420 -107.11380 25821 ft 260 kts 239°
2026-05-09 02:44 45.96226 -107.13329 25822 ft 260 kts 238°
2026-05-09 02:44 45.95028 -107.15283 25821 ft 260 kts 238°
2026-05-09 02:44 45.93830 -107.17236 25818 ft 260 kts 238°
2026-05-09 02:44 45.92634 -107.19184 25817 ft 260 kts 238°
2026-05-09 02:45 45.91438 -107.21131 25817 ft 260 kts 238°
2026-05-09 02:45 45.90240 -107.23079 25813 ft 260 kts 238°
2026-05-09 02:45 45.89045 -107.25021 25817 ft 259 kts 238°
2026-05-09 02:45 45.87842 -107.26950 25822 ft 260 kts 238°
2026-05-09 02:46 45.86626 -107.28872 25820 ft 260 kts 237°
2026-05-09 02:46 45.85410 -107.30787 25810 ft 260 kts 237°
2026-05-09 02:46 45.84191 -107.32704 25811 ft 260 kts 237°
2026-05-09 02:46 45.82976 -107.34615 25814 ft 259 kts 237°
2026-05-09 02:47 45.81763 -107.36522 25818 ft 259 kts 237°
2026-05-09 02:47 45.80551 -107.38430 25820 ft 259 kts 237°
2026-05-09 02:47 45.79357 -107.40311 25823 ft 258 kts 237°
2026-05-09 02:47 45.78146 -107.42216 25824 ft 258 kts 237°
2026-05-09 02:48 45.76935 -107.44122 25824 ft 259 kts 237°
2026-05-09 02:48 45.75723 -107.46027 25822 ft 258 kts 237°
2026-05-09 02:48 45.74511 -107.47931 25824 ft 258 kts 237°
2026-05-09 02:48 45.73299 -107.49834 25823 ft 258 kts 237°
2026-05-09 02:49 45.72086 -107.51737 25811 ft 258 kts 237°
2026-05-09 02:49 45.70873 -107.53636 25820 ft 257 kts 237°
2026-05-09 02:49 45.69682 -107.55503 25827 ft 257 kts 237°
2026-05-09 02:49 45.68479 -107.57387 25824 ft 256 kts 237°
2026-05-09 02:50 45.67276 -107.59271 25826 ft 256 kts 237°
2026-05-09 02:50 45.66073 -107.61153 25829 ft 257 kts 237°
2026-05-09 02:50 45.64866 -107.63040 25828 ft 257 kts 236°
2026-05-09 02:50 45.63659 -107.64924 25827 ft 257 kts 236°
2026-05-09 02:51 45.62453 -107.66805 25829 ft 256 kts 236°
2026-05-09 02:51 45.61248 -107.68684 25830 ft 256 kts 236°
2026-05-09 02:51 45.60043 -107.70562 25830 ft 256 kts 236°
2026-05-09 02:51 45.58839 -107.72434 25831 ft 256 kts 236°
2026-05-09 02:52 45.57636 -107.74306 25834 ft 256 kts 236°
2026-05-09 02:52 45.56432 -107.76179 25832 ft 256 kts 236°
2026-05-09 02:52 45.55228 -107.78049 25834 ft 256 kts 236°
2026-05-09 02:52 45.54023 -107.79920 25837 ft 256 kts 236°
2026-05-09 02:53 45.52834 -107.81763 25830 ft 255 kts 236°
2026-05-09 02:53 45.51633 -107.83625 25834 ft 255 kts 236°
2026-05-09 02:53 45.50433 -107.85486 25836 ft 255 kts 236°
2026-05-09 02:53 45.49235 -107.87342 25845 ft 255 kts 236°
2026-05-09 02:54 45.48031 -107.89207 25844 ft 255 kts 236°
2026-05-09 02:54 45.46831 -107.91064 25845 ft 255 kts 236°
2026-05-09 02:54 45.45628 -107.92923 25847 ft 255 kts 236°
2026-05-09 02:54 45.44421 -107.94788 25846 ft 255 kts 236°
2026-05-09 02:55 45.43216 -107.96648 25847 ft 256 kts 236°
2026-05-09 02:55 45.42010 -107.98506 25855 ft 255 kts 236°
2026-05-09 02:55 45.40806 -108.00362 25855 ft 255 kts 236°
2026-05-09 02:55 45.39617 -108.02192 25856 ft 255 kts 236°
2026-05-09 02:56 45.38429 -108.04019 25854 ft 255 kts 236°
2026-05-09 02:56 45.37225 -108.05873 25856 ft 256 kts 236°
2026-05-09 02:56 45.36013 -108.07736 25860 ft 257 kts 236°
2026-05-09 02:56 45.34795 -108.09608 25856 ft 258 kts 235°
2026-05-09 02:57 45.33578 -108.11476 25860 ft 257 kts 235°
2026-05-09 02:57 45.32383 -108.13309 25865 ft 258 kts 235°
2026-05-09 02:57 45.31163 -108.15178 25861 ft 258 kts 235°
2026-05-09 02:57 45.29945 -108.17043 25868 ft 258 kts 235°
2026-05-09 02:58 45.28726 -108.18911 25867 ft 258 kts 235°
2026-05-09 02:58 45.27505 -108.20780 25875 ft 258 kts 235°
2026-05-09 02:58 45.26302 -108.22620 25876 ft 258 kts 235°
2026-05-09 02:58 45.25081 -108.24486 25873 ft 258 kts 235°
2026-05-09 02:59 45.23861 -108.26349 25874 ft 258 kts 235°
2026-05-09 02:59 45.22639 -108.28213 25886 ft 258 kts 235°
2026-05-09 02:59 45.21415 -108.30079 25885 ft 258 kts 235°
2026-05-09 02:59 45.20192 -108.31944 25892 ft 258 kts 235°
2026-05-09 03:00 45.18966 -108.33811 25881 ft 258 kts 235°
2026-05-09 03:00 45.17761 -108.35641 25868 ft 257 kts 235°
2026-05-09 03:00 45.16545 -108.37491 25868 ft 256 kts 234°
2026-05-09 03:00 45.15330 -108.39335 25879 ft 256 kts 234°
2026-05-09 03:01 45.14119 -108.41177 25860 ft 254 kts 234°
2026-05-09 03:01 45.12911 -108.43005 25882 ft 254 kts 234°
2026-05-09 03:01 45.11702 -108.44835 25881 ft 254 kts 234°
2026-05-09 03:01 45.10496 -108.46659 25882 ft 254 kts 234°
2026-05-09 03:02 45.09284 -108.48492 25882 ft 255 kts 234°
2026-05-09 03:02 45.08072 -108.50327 25886 ft 255 kts 234°
2026-05-09 03:02 45.06860 -108.52159 25883 ft 255 kts 234°
2026-05-09 03:02 45.05663 -108.53967 25883 ft 255 kts 234°
2026-05-09 03:03 45.04437 -108.55818 25882 ft 255 kts 234°
2026-05-09 03:03 45.03238 -108.57627 25876 ft 255 kts 234°
2026-05-09 03:03 45.02026 -108.59455 25885 ft 255 kts 234°
2026-05-09 03:03 45.00815 -108.61280 25884 ft 255 kts 234°
2026-05-09 03:04 44.99604 -108.63104 25888 ft 254 kts 234°
2026-05-09 03:04 44.98392 -108.64928 25884 ft 254 kts 234°
2026-05-09 03:04 44.97184 -108.66744 25881 ft 253 kts 233°
2026-05-09 03:04 44.95978 -108.68560 25885 ft 253 kts 233°
2026-05-09 03:05 44.94775 -108.70374 25881 ft 253 kts 233°
2026-05-09 03:05 44.93571 -108.72185 25884 ft 253 kts 233°
2026-05-09 03:05 44.92367 -108.73996 25886 ft 253 kts 233°
2026-05-09 03:05 44.91161 -108.75805 25953 ft 253 kts 233°
2026-05-09 03:06 44.89952 -108.77617 25953 ft 253 kts 233°
2026-05-09 03:06 44.88761 -108.79402 25953 ft 253 kts 233°
2026-05-09 03:06 44.87554 -108.81208 25953 ft 253 kts 233°
2026-05-09 03:06 44.86344 -108.83018 25952 ft 253 kts 233°
2026-05-09 03:07 44.85139 -108.84819 25981 ft 253 kts 233°
2026-05-09 03:07 44.83928 -108.86626 25981 ft 253 kts 233°
2026-05-09 03:07 44.82715 -108.88437 25983 ft 253 kts 233°
2026-05-09 03:07 44.81503 -108.90244 25982 ft 254 kts 233°
2026-05-09 03:08 44.80289 -108.92054 25976 ft 254 kts 233°
2026-05-09 03:08 44.79076 -108.93861 25969 ft 254 kts 233°
2026-05-09 03:08 44.77859 -108.95672 25964 ft 254 kts 233°
2026-05-09 03:08 44.76657 -108.97461 25949 ft 254 kts 233°
2026-05-09 03:09 44.75441 -108.99268 25952 ft 254 kts 233°
2026-05-09 03:09 44.74228 -109.01068 25949 ft 253 kts 233°
2026-05-09 03:09 44.73014 -109.02870 25963 ft 253 kts 233°
2026-05-09 03:09 44.71802 -109.04667 25968 ft 253 kts 233°
2026-05-09 03:10 44.70590 -109.06464 25970 ft 253 kts 233°
2026-05-09 03:10 44.69382 -109.08253 25973 ft 253 kts 233°
2026-05-09 03:10 44.68171 -109.10047 25977 ft 253 kts 233°
2026-05-09 03:10 44.66961 -109.11837 25983 ft 252 kts 233°
2026-05-09 03:11 44.65751 -109.13623 25977 ft 252 kts 233°
2026-05-09 03:11 44.64543 -109.15408 25984 ft 252 kts 233°
2026-05-09 03:11 44.63333 -109.17198 25981 ft 253 kts 233°
2026-05-09 03:11 44.62124 -109.18985 25979 ft 252 kts 233°
2026-05-09 03:12 44.60916 -109.20769 25979 ft 252 kts 233°
2026-05-09 03:12 44.59710 -109.22548 25977 ft 251 kts 233°
2026-05-09 03:12 44.58504 -109.24325 25975 ft 251 kts 232°
2026-05-09 03:12 44.57298 -109.26097 25968 ft 250 kts 233°
2026-05-09 03:13 44.54918 -109.29593 25974 ft 250 kts 233°
2026-05-09 03:13 44.53713 -109.31362 25977 ft 250 kts 232°
2026-05-09 03:13 44.52507 -109.33128 25978 ft 250 kts 232°
2026-05-09 03:14 44.51305 -109.34892 25976 ft 251 kts 233°
2026-05-09 03:14 44.50507 -109.36064 25975 ft 251 kts 233°
2026-05-09 03:14 44.49301 -109.37836 25957 ft 251 kts 233°
2026-05-09 03:14 44.48093 -109.39608 25961 ft 251 kts 233°
2026-05-09 03:15 44.46494 -109.41953 25981 ft 251 kts 233°
2026-05-09 03:15 44.45680 -109.43145 25980 ft 251 kts 233°
2026-05-09 03:15 44.44469 -109.44916 25979 ft 252 kts 233°
2026-05-09 03:15 44.43257 -109.46688 25976 ft 252 kts 233°
2026-05-09 03:16 44.42047 -109.48457 25972 ft 251 kts 233°
2026-05-09 03:16 44.40839 -109.50218 25974 ft 251 kts 233°
2026-05-09 03:16 44.39623 -109.51997 25846 ft 254 kts 233°
2026-05-09 03:16 44.38393 -109.53794 25745 ft 257 kts 233°
2026-05-09 03:17 44.37149 -109.55605 25634 ft 259 kts 232°
2026-05-09 03:17 44.35906 -109.57415 25365 ft 264 kts 233°
2026-05-09 03:17 44.34632 -109.59271 25031 ft 264 kts 232°
2026-05-09 03:17 44.33361 -109.61121 24702 ft 264 kts 232°
2026-05-09 03:18 44.32089 -109.62968 24388 ft 264 kts 232°
2026-05-09 03:18 44.30815 -109.64818 24097 ft 264 kts 232°
2026-05-09 03:18 44.29542 -109.66662 23792 ft 264 kts 232°
2026-05-09 03:18 44.28270 -109.68504 23471 ft 263 kts 232°
2026-05-09 03:19 44.27004 -109.70336 23095 ft 262 kts 232°
2026-05-09 03:19 44.25739 -109.72166 22723 ft 261 kts 232°
2026-05-09 03:19 44.24478 -109.73985 22384 ft 260 kts 232°
2026-05-09 03:19 44.23222 -109.75796 22009 ft 259 kts 232°
2026-05-09 03:20 44.21969 -109.77606 21658 ft 259 kts 232°
2026-05-09 03:20 44.20720 -109.79412 21314 ft 259 kts 233°
2026-05-09 03:20 44.19473 -109.81213 20947 ft 257 kts 233°
2026-05-09 03:20 44.18245 -109.82985 20615 ft 257 kts 233°
2026-05-09 03:21 44.17002 -109.84777 20304 ft 257 kts 233°
2026-05-09 03:21 44.15763 -109.86560 19958 ft 255 kts 232°
2026-05-09 03:21 44.14530 -109.88333 19617 ft 255 kts 233°
2026-05-09 03:21 44.13299 -109.90099 19278 ft 254 kts 233°
2026-05-09 03:22 44.12070 -109.91863 18946 ft 254 kts 233°
2026-05-09 03:22 44.10838 -109.93632 18631 ft 255 kts 233°
2026-05-09 03:22 44.09606 -109.95398 18304 ft 254 kts 233°
2026-05-09 03:22 44.08372 -109.97173 17945 ft 255 kts 233°
2026-05-09 03:23 44.07135 -109.98952 17586 ft 256 kts 233°
2026-05-09 03:23 44.05897 -110.00729 17219 ft 256 kts 232°
2026-05-09 03:23 44.04658 -110.02501 16847 ft 255 kts 232°
2026-05-09 03:23 44.03425 -110.04256 16465 ft 253 kts 232°
2026-05-09 03:24 44.02212 -110.05987 16115 ft 254 kts 232°
2026-05-09 03:24 44.00984 -110.07744 15763 ft 255 kts 231°
2026-05-09 03:24 43.99745 -110.09518 15451 ft 256 kts 231°
2026-05-09 03:24 43.98503 -110.11293 15112 ft 256 kts 231°
2026-05-09 03:25 43.97257 -110.13072 14792 ft 257 kts 231°
2026-05-09 03:25 43.96006 -110.14855 14466 ft 258 kts 232°
2026-05-09 03:25 43.94754 -110.16639 14146 ft 258 kts 231°
2026-05-09 03:25 43.93504 -110.18422 13818 ft 257 kts 231°
2026-05-09 03:26 43.92254 -110.20200 13474 ft 258 kts 231°
2026-05-09 03:26 43.91005 -110.21970 13076 ft 254 kts 230°
2026-05-09 03:26 43.89778 -110.23703 12673 ft 251 kts 230°
2026-05-09 03:26 43.88557 -110.25433 12334 ft 250 kts 230°
2026-05-09 03:27 43.87342 -110.27155 12001 ft 250 kts 229°
2026-05-09 03:27 43.86131 -110.28874 11679 ft 249 kts 229°
2026-05-09 03:27 43.84927 -110.30581 11385 ft 247 kts 229°
2026-05-09 03:27 43.83728 -110.32280 11098 ft 246 kts 229°
2026-05-09 03:28 43.82793 -110.34151 11001 ft 231 kts 253°
2026-05-09 03:28 43.82512 -110.36283 10982 ft 223 kts 265°
2026-05-09 03:28 43.82387 -110.38382 10967 ft 220 kts 267°
2026-05-09 03:28 43.82277 -110.40476 10959 ft 216 kts 266°
2026-05-09 03:29 43.82157 -110.42543 10957 ft 214 kts 266°
2026-05-09 03:29 43.82026 -110.44591 10956 ft 213 kts 266°
2026-05-09 03:29 43.81886 -110.46646 10958 ft 215 kts 265°
2026-05-09 03:29 43.81741 -110.48723 10957 ft 217 kts 265°
2026-05-09 03:30 43.81593 -110.50815 10958 ft 219 kts 265°
2026-05-09 03:30 43.81361 -110.52902 10957 ft 219 kts 257°
2026-05-09 03:30 43.80849 -110.54848 10956 ft 218 kts 248°
2026-05-09 03:30 43.80200 -110.56756 10727 ft 220 kts 246°
2026-05-09 03:31 43.79538 -110.58673 10438 ft 221 kts 245°
2026-05-09 03:31 43.78882 -110.60584 10158 ft 219 kts 246°
2026-05-09 03:31 43.78234 -110.62478 9949 ft 216 kts 245°
2026-05-09 03:31 43.77610 -110.64329 9860 ft 208 kts 246°
2026-05-09 03:32 43.76752 -110.65878 9601 ft 208 kts 214°
2026-05-09 03:32 43.75431 -110.66689 9353 ft 209 kts 201°
2026-05-09 03:32 43.74079 -110.67245 9113 ft 195 kts 199°
2026-05-09 03:32 43.72816 -110.67769 8857 ft 184 kts 200°
2026-05-09 03:33 43.71648 -110.68349 8597 ft 173 kts 202°
2026-05-09 03:33 43.70565 -110.68952 8397 ft 163 kts 204°
2026-05-09 03:33 43.69542 -110.69524 8188 ft 153 kts 202°
2026-05-09 03:33 43.68610 -110.69979 7986 ft 132 kts 199°
2026-05-09 03:34 43.67802 -110.70346 7840 ft 114 kts 199°
2026-05-09 03:34 43.67057 -110.70659 7718 ft 110 kts 199°
2026-05-09 03:34 43.66335 -110.70999 7546 ft 109 kts 199°
2026-05-09 03:34 43.65639 -110.71365 7400 ft 106 kts 201°
2026-05-09 03:35 43.64959 -110.71708 7236 ft 106 kts 199°
2026-05-09 03:35 43.64258 -110.72051 7075 ft 107 kts 197°
2026-05-09 03:35 43.63561 -110.72381 6932 ft 107 kts 199°
2026-05-09 03:35 43.62861 -110.72728 6791 ft 107 kts 198°
2026-05-09 03:36 43.62153 -110.73074 6609 ft 109 kts 198°
2026-05-09 03:36 43.61458 -110.73417 6441 ft 104 kts 198°
2026-05-09 03:36 43.60851 -110.73714 6421 ft 75 kts 200°
2026-05-09 03:36 43.60567 -110.73855 6416 ft 34 kts 199°
2026-05-09 03:37 43.60453 -110.73913 6414 ft 12 kts 198°
2026-05-09 03:37 43.60382 -110.73861 6413 ft 12 kts 112°
2026-05-09 03:37 43.60333 -110.73810 6417 ft 8 kts 197°
2026-05-09 03:37 43.60276 -110.73840 6415 ft 9 kts 195°
2026-05-09 03:38 43.60220 -110.73865 6417 ft 8 kts 199°
2026-05-09 03:38 43.60166 -110.73892 6417 ft 8 kts 200°
2026-05-09 03:38 43.60122 -110.73914 6417 ft 6 kts 198°
2026-05-09 03:38 43.60082 -110.73932 6414 ft 7 kts 199°
2026-05-09 03:39 43.60037 -110.73953 6417 ft 7 kts 197°
2026-05-09 03:39 43.60000 -110.73946 6418 ft 4 kts 126°
2026-05-09 03:39 43.59993 -110.73921 6419 ft 1 kts 107°
2026-05-09 03:39 43.59991 -110.73908 6419 ft 3 kts 108°
2026-05-09 03:40 43.59996 -110.73872 6420 ft 4 kts 19°
2026-05-09 03:40 43.60023 -110.73860 6419 ft 3 kts 31°
2026-05-09 03:40 43.60028 -110.73849 6418 ft 3 kts 91°
2026-05-09 03:40 43.60024 -110.73834 6418 ft 0 kts 109°